﻿_id,日時,平均風速(m/s),平均風向,最大瞬間風速(m/s),最大風速時風向,気温(℃),湿度(%),10分間移動積算雨量(mm),1時間移動積算雨量(mm),日雨量(mm),累計雨量(mm),日射(日積算)(MJ/m2),日照(日積算)(min),現地気圧(hPa),海面気圧(hPa)
1,2020-01-27T00:00:00,4,北,8.1,北北東,8.1,62.9,0,0,0,0,10.43,268,1012.2,1026.5
2,2020-01-27T00:01:00,4,北,8.1,北北東,8.1,63.2,0,0,0,0,0,0,1012.2,1026.5
3,2020-01-27T00:02:00,3.9,北,7.8,北北東,8.1,62.8,0,0,0,0,0,0,1012.2,1026.5
4,2020-01-27T00:03:00,3.8,北,7.8,北北東,8.1,62.7,0,0,0,0,0,0,1012.1,1026.4
5,2020-01-27T00:04:00,3.8,北,9.7,北,8.2,62.7,0,0,0,0,0,0,1012.1,1026.4
6,2020-01-27T00:05:00,3.8,北,9.7,北,8.2,62.4,0,0,0,0,0,0,1012.1,1026.4
7,2020-01-27T00:06:00,3.8,北,9.7,北,8.2,62.4,0,0,0,0,0,0,1012.2,1026.5
8,2020-01-27T00:07:00,3.9,北,9.7,北,8.2,62.4,0,0,0,0,0,0,1012.2,1026.5
9,2020-01-27T00:08:00,3.9,北,9.7,北,8.2,62.3,0,0,0,0,0,0,1012.3,1026.6
10,2020-01-27T00:09:00,3.7,北,9.7,北,8.2,62.3,0,0,0,0,0,0,1012.2,1026.5
11,2020-01-27T00:10:00,3.6,北,9.7,北,8.2,62.4,0,0,0,0,0,0,1012.2,1026.5
12,2020-01-27T00:11:00,3.6,北,9.7,北,8.2,62.6,0,0,0,0,0,0,1012.2,1026.5
13,2020-01-27T00:12:00,3.7,北,9.7,北,8.1,62.5,0,0,0,0,0,0,1012.2,1026.5
14,2020-01-27T00:13:00,3.8,北,9.7,北,8,62.8,0,0,0,0,0,0,1012.2,1026.5
15,2020-01-27T00:14:00,3.8,北,8.5,北北東,8,63.1,0,0,0,0,0,0,1012.1,1026.4
16,2020-01-27T00:15:00,3.6,北,8.5,北北東,8,62.9,0,0,0,0,0,0,1012.1,1026.4
17,2020-01-27T00:16:00,3.7,北,8.5,北北東,8.1,62.9,0,0,0,0,0,0,1012.1,1026.4
18,2020-01-27T00:17:00,4,北,9.2,北東,8.1,62.8,0,0,0,0,0,0,1012.1,1026.4
19,2020-01-27T00:18:00,4.4,北,9.2,北東,8.2,62.9,0,0,0,0,0,0,1012.1,1026.4
20,2020-01-27T00:19:00,4.5,北,9.2,北東,8.2,62.8,0,0,0,0,0,0,1012.1,1026.4
21,2020-01-27T00:20:00,4.5,北,9.2,北東,8.1,62.7,0,0,0,0,0,0,1012.1,1026.4
22,2020-01-27T00:21:00,4.4,北,9.2,北東,8.1,62.5,0,0,0,0,0,0,1012.1,1026.4
23,2020-01-27T00:22:00,4.4,北,9.2,北東,8.1,62.6,0,0,0,0,0,0,1012.1,1026.4
24,2020-01-27T00:23:00,4.4,北,9.2,北東,8.1,62.5,0,0,0,0,0,0,1012.1,1026.4
25,2020-01-27T00:24:00,4.4,北,9.2,北東,8.1,62.6,0,0,0,0,0,0,1012.1,1026.4
26,2020-01-27T00:25:00,4.5,北,9.2,北東,8,62.7,0,0,0,0,0,0,1012.2,1026.5
27,2020-01-27T00:26:00,4.5,北,9.2,北東,8,62.8,0,0,0,0,0,0,1012.1,1026.4
28,2020-01-27T00:27:00,4.2,北,8.8,北,8,62.8,0,0,0,0,0,0,1012.1,1026.4
29,2020-01-27T00:28:00,3.8,北,8.8,北,8,63,0,0,0,0,0,0,1012.1,1026.4
30,2020-01-27T00:29:00,3.6,北,8.8,北,8,63,0,0,0,0,0,0,1012.1,1026.4
31,2020-01-27T00:30:00,3.5,北,8.8,北,8,63,0,0,0,0,0,0,1012.1,1026.4
32,2020-01-27T00:31:00,3.6,北,8.8,北,7.9,63.2,0,0,0,0,0,0,1012,1026.3
33,2020-01-27T00:32:00,3.5,北,8.8,北,7.9,63.4,0,0,0,0,0,0,1012,1026.3
34,2020-01-27T00:33:00,3.5,北,8.8,北,7.9,63.6,0,0,0,0,0,0,1012,1026.3
35,2020-01-27T00:34:00,3.4,北,8.8,北,8,62.9,0,0,0,0,0,0,1012,1026.3
36,2020-01-27T00:35:00,3.5,北,8,北,8,62.4,0,0,0,0,0,0,1012,1026.3
37,2020-01-27T00:36:00,3.4,北,8,北,8,62.3,0,0,0,0,0,0,1012,1026.3
38,2020-01-27T00:37:00,3.4,北,8,北,8,62.3,0,0,0,0,0,0,1012,1026.3
39,2020-01-27T00:38:00,3.3,北,8,北,8,62.4,0,0,0,0,0,0,1012,1026.3
40,2020-01-27T00:39:00,3.2,北,8,北,7.9,62.7,0,0,0,0,0,0,1011.9,1026.2
41,2020-01-27T00:40:00,3.4,北,8,北,8,62.9,0,0,0,0,0,0,1012,1026.3
42,2020-01-27T00:41:00,3.6,北,8,北,8,63.1,0,0,0,0,0,0,1011.9,1026.2
43,2020-01-27T00:42:00,3.7,北,8,北,8,63.1,0,0,0,0,0,0,1011.9,1026.2
44,2020-01-27T00:43:00,3.5,北,8,北北東,7.9,62.7,0,0,0,0,0,0,1011.9,1026.2
45,2020-01-27T00:44:00,3.7,北,9.1,北,7.9,62.6,0,0,0,0,0,0,1011.9,1026.2
46,2020-01-27T00:45:00,3.8,北,9.1,北,8,62.7,0,0,0,0,0,0,1011.9,1026.2
47,2020-01-27T00:46:00,3.9,北,9.1,北,7.9,62.3,0,0,0,0,0,0,1011.9,1026.2
48,2020-01-27T00:47:00,4,北,9.1,北,8,62.3,0,0,0,0,0,0,1011.9,1026.2
49,2020-01-27T00:48:00,4.2,北,9.1,北,8,62.4,0,0,0,0,0,0,1011.9,1026.2
50,2020-01-27T00:49:00,4.5,北,9.1,北,8,62.5,0,0,0,0,0,0,1011.9,1026.2
51,2020-01-27T00:50:00,4.4,北,9.6,北,7.9,62.5,0,0,0,0,0,0,1011.9,1026.2
52,2020-01-27T00:51:00,4.1,北,9.6,北,7.9,62.3,0,0,0,0,0,0,1011.9,1026.2
53,2020-01-27T00:52:00,4.1,北,9.6,北,7.9,62.4,0,0,0,0,0,0,1011.9,1026.2
54,2020-01-27T00:53:00,4.5,北,10.6,北北東,8,62.2,0,0,0,0,0,0,1011.9,1026.2
55,2020-01-27T00:54:00,4.5,北,10.6,北北東,8.1,62.3,0,0,0,0,0,0,1011.9,1026.2
56,2020-01-27T00:55:00,4.5,北,10.6,北北東,8.1,62.3,0,0,0,0,0,0,1011.9,1026.2
57,2020-01-27T00:56:00,4.4,北,10.6,北北東,8,62,0,0,0,0,0,0,1011.9,1026.2
58,2020-01-27T00:57:00,4.4,北,10.6,北北東,8,62,0,0,0,0,0,0,1011.8,1026.1
59,2020-01-27T00:58:00,4.2,北,10.6,北北東,8,62,0,0,0,0,0,0,1011.9,1026.2
60,2020-01-27T00:59:00,4,北,10.6,北北東,7.9,61.8,0,0,0,0,0,0,1012,1026.3
61,2020-01-27T01:00:00,3.8,北,10.6,北北東,7.9,62.1,0,0,0,0,0,0,1012,1026.3
62,2020-01-27T01:01:00,3.8,北,10.6,北北東,7.9,62.3,0,0,0,0,0,0,1012,1026.3
63,2020-01-27T01:02:00,4,北,10.6,北北東,7.9,62.1,0,0,0,0,0,0,1012,1026.3
64,2020-01-27T01:03:00,3.7,北,9.1,北北東,7.9,62.2,0,0,0,0,0,0,1012,1026.3
65,2020-01-27T01:04:00,3.5,北,7.9,北,7.9,62.3,0,0,0,0,0,0,1012,1026.3
66,2020-01-27T01:05:00,3.3,北,7.7,北北東,7.9,62.4,0,0,0,0,0,0,1012,1026.3
67,2020-01-27T01:06:00,3.3,北,7.5,北北東,7.9,62.7,0,0,0,0,0,0,1012,1026.3
68,2020-01-27T01:07:00,3.3,北,8.1,北北東,7.9,62.7,0,0,0,0,0,0,1012,1026.3
69,2020-01-27T01:08:00,3.5,北,8.1,北北東,7.9,62.8,0,0,0,0,0,0,1012,1026.3
70,2020-01-27T01:09:00,3.6,北,8.1,北北東,7.9,62.4,0,0,0,0,0,0,1012,1026.3
71,2020-01-27T01:10:00,3.8,北,8.1,北北東,8,62.1,0,0,0,0,0,0,1012,1026.3
72,2020-01-27T01:11:00,3.8,北,8.1,北北東,7.9,61.7,0,0,0,0,0,0,1012,1026.3
73,2020-01-27T01:12:00,3.6,北,8.1,北北東,8,61.8,0,0,0,0,0,0,1012.1,1026.4
74,2020-01-27T01:13:00,3.5,北,8.1,北北東,7.9,61.8,0,0,0,0,0,0,1012.1,1026.4
75,2020-01-27T01:14:00,3.4,北,8.1,北北東,7.9,61.8,0,0,0,0,0,0,1012.1,1026.4
76,2020-01-27T01:15:00,3.4,北,8.1,北北東,7.9,61.9,0,0,0,0,0,0,1012.2,1026.5
77,2020-01-27T01:16:00,3.5,北,8.1,北北東,7.9,62.2,0,0,0,0,0,0,1012.2,1026.5
78,2020-01-27T01:17:00,3.4,北,8,北北東,7.9,62.2,0,0,0,0,0,0,1012.2,1026.5
79,2020-01-27T01:18:00,3.4,北,8.8,北北東,7.9,62.4,0,0,0,0,0,0,1012.2,1026.5
80,2020-01-27T01:19:00,3.6,北,8.8,北北東,8,62.5,0,0,0,0,0,0,1012.2,1026.5
81,2020-01-27T01:20:00,3.7,北,8.8,北北東,7.9,62.3,0,0,0,0,0,0,1012.2,1026.5
82,2020-01-27T01:21:00,3.8,北,8.8,北北東,7.9,62.5,0,0,0,0,0,0,1012.2,1026.5
83,2020-01-27T01:22:00,4,北,8.8,北北東,7.9,62.5,0,0,0,0,0,0,1012.1,1026.4
84,2020-01-27T01:23:00,4,北,8.8,北北東,7.9,62,0,0,0,0,0,0,1012.1,1026.4
85,2020-01-27T01:24:00,4.1,北,8.8,北北東,7.9,61.7,0,0,0,0,0,0,1012,1026.3
86,2020-01-27T01:25:00,4.1,北,8.8,北北東,7.9,61.5,0,0,0,0,0,0,1012,1026.3
87,2020-01-27T01:26:00,3.9,北,8.8,北北東,7.9,61.4,0,0,0,0,0,0,1012,1026.3
88,2020-01-27T01:27:00,4.2,北,8.8,北北東,7.9,61.3,0,0,0,0,0,0,1012,1026.3
89,2020-01-27T01:28:00,4,北,8.1,北北東,7.9,61.2,0,0,0,0,0,0,1012,1026.3
90,2020-01-27T01:29:00,3.7,北,8.1,北北東,7.9,61.4,0,0,0,0,0,0,1012,1026.3
91,2020-01-27T01:30:00,3.6,北,8.1,北北東,7.8,61.5,0,0,0,0,0,0,1012,1026.3
92,2020-01-27T01:31:00,3.6,北,8.1,北北東,7.8,61.7,0,0,0,0,0,0,1012,1026.3
93,2020-01-27T01:32:00,3.5,北,7.5,北北東,7.9,61.6,0,0,0,0,0,0,1012,1026.3
94,2020-01-27T01:33:00,3.6,北,7.5,北北東,7.9,61.5,0,0,0,0,0,0,1012.1,1026.4
95,2020-01-27T01:34:00,3.6,北,7.5,北北東,7.8,61.6,0,0,0,0,0,0,1012.1,1026.4
96,2020-01-27T01:35:00,3.9,北,8.7,北北東,7.9,61.8,0,0,0,0,0,0,1012.1,1026.4
97,2020-01-27T01:36:00,3.9,北,8.7,北北東,7.9,61.7,0,0,0,0,0,0,1012.1,1026.4
98,2020-01-27T01:37:00,3.8,北,8.7,北北東,7.9,61.5,0,0,0,0,0,0,1012.1,1026.4
99,2020-01-27T01:38:00,3.9,北,8.7,北北東,7.8,61.5,0,0,0,0,0,0,1012.1,1026.4
100,2020-01-27T01:39:00,4.1,北,8.7,北北東,7.8,61.8,0,0,0,0,0,0,1012.1,1026.4
101,2020-01-27T01:40:00,4.2,北,8.7,北北東,7.8,62,0,0,0,0,0,0,1012.1,1026.4
102,2020-01-27T01:41:00,4.1,北北東,8.7,北北東,7.8,62.1,0,0,0,0,0,0,1012.1,1026.4
103,2020-01-27T01:42:00,4,北,8.7,北北東,7.8,62.2,0,0,0,0,0,0,1012.1,1026.4
104,2020-01-27T01:43:00,3.9,北,8.7,北北東,7.8,62.1,0,0,0,0,0,0,1012.1,1026.4
105,2020-01-27T01:44:00,3.7,北,8.7,北北東,7.8,61.9,0,0,0,0,0,0,1012.1,1026.4
106,2020-01-27T01:45:00,3.6,北,7.2,北,7.9,62.1,0,0,0,0,0,0,1012.1,1026.4
107,2020-01-27T01:46:00,3.5,北,7.1,北西,7.8,62.1,0,0,0,0,0,0,1012.1,1026.4
108,2020-01-27T01:47:00,3.4,北,7.1,北西,7.8,62,0,0,0,0,0,0,1012.1,1026.4
109,2020-01-27T01:48:00,3.3,北,7.1,北西,7.8,61.9,0,0,0,0,0,0,1012,1026.3
110,2020-01-27T01:49:00,3.2,北,7.1,北西,7.7,62.2,0,0,0,0,0,0,1012,1026.4
111,2020-01-27T01:50:00,3.2,北,7.1,北西,7.8,62.5,0,0,0,0,0,0,1012,1026.3
112,2020-01-27T01:51:00,3.1,北,7.1,北西,7.8,62.1,0,0,0,0,0,0,1011.9,1026.2
113,2020-01-27T01:52:00,3.2,北,7.1,北北東,7.8,61.9,0,0,0,0,0,0,1011.9,1026.2
114,2020-01-27T01:53:00,3.4,北,8.1,北,7.8,61.7,0,0,0,0,0,0,1011.9,1026.2
115,2020-01-27T01:54:00,3.7,北,8.1,北,7.9,61.5,0,0,0,0,0,0,1011.9,1026.2
116,2020-01-27T01:55:00,3.7,北,8.1,北,8,61.7,0,0,0,0,0,0,1011.9,1026.2
117,2020-01-27T01:56:00,3.7,北,8.1,北,7.9,61.2,0,0,0,0,0,0,1011.9,1026.2
118,2020-01-27T01:57:00,3.9,北,8.1,北,7.9,61.2,0,0,0,0,0,0,1011.8,1026.1
119,2020-01-27T01:58:00,4.1,北,9.1,北,7.9,61,0,0,0,0,0,0,1011.8,1026.1
120,2020-01-27T01:59:00,4,北,9.1,北,7.9,60.9,0,0,0,0,0,0,1011.7,1026
121,2020-01-27T02:00:00,4.1,北,9.1,北,7.8,60.8,0,0,0,0,0,0,1011.7,1026
122,2020-01-27T02:01:00,4.2,北,9.1,北,7.9,61.3,0,0,0,0,0,0,1011.6,1025.9
123,2020-01-27T02:02:00,4.2,北,9.1,北,7.8,61.5,0,0,0,0,0,0,1011.6,1025.9
124,2020-01-27T02:03:00,4.2,北,9.1,北,7.7,62,0,0,0,0,0,0,1011.6,1025.9
125,2020-01-27T02:04:00,4,北,9.1,北,7.8,62.1,0,0,0,0,0,0,1011.6,1025.9
126,2020-01-27T02:05:00,4.1,北,9.1,北,7.8,61.9,0,0,0,0,0,0,1011.6,1025.9
127,2020-01-27T02:06:00,4.1,北,9.1,北,7.9,62,0,0,0,0,0,0,1011.6,1025.9
128,2020-01-27T02:07:00,4.1,北,9.1,北,7.9,62.1,0,0,0,0,0,0,1011.5,1025.8
129,2020-01-27T02:08:00,3.9,北,7.9,北北東,7.8,61.8,0,0,0,0,0,0,1011.5,1025.8
130,2020-01-27T02:09:00,4,北,9.6,北北東,7.7,62,0,0,0,0,0,0,1011.5,1025.8
131,2020-01-27T02:10:00,4,北,9.6,北北東,7.7,62.1,0,0,0,0,0,0,1011.4,1025.7
132,2020-01-27T02:11:00,4,北,9.6,北北東,7.8,62.3,0,0,0,0,0,0,1011.5,1025.8
133,2020-01-27T02:12:00,4,北,9.6,北北東,7.8,62.2,0,0,0,0,0,0,1011.5,1025.8
134,2020-01-27T02:13:00,4,北北東,9.6,北北東,7.9,62.5,0,0,0,0,0,0,1011.5,1025.8
135,2020-01-27T02:14:00,4,北北東,9.6,北北東,7.8,62.8,0,0,0,0,0,0,1011.5,1025.8
136,2020-01-27T02:15:00,3.9,北北東,9.6,北北東,7.8,62.7,0,0,0,0,0,0,1011.6,1025.9
137,2020-01-27T02:16:00,4,北北東,9.6,北北東,7.8,62.7,0,0,0,0,0,0,1011.6,1025.9
138,2020-01-27T02:17:00,4,北北東,9.6,北北東,7.7,62.7,0,0,0,0,0,0,1011.6,1025.9
139,2020-01-27T02:18:00,4,北北東,9.6,北北東,7.7,62.7,0,0,0,0,0,0,1011.6,1025.9
140,2020-01-27T02:19:00,3.9,北北東,9.3,北北東,7.8,62.9,0,0,0,0,0,0,1011.6,1025.9
141,2020-01-27T02:20:00,3.7,北北東,7.9,北北東,7.8,62.7,0,0,0,0,0,0,1011.7,1026
142,2020-01-27T02:21:00,3.8,北北東,7.9,北北東,7.8,62.7,0,0,0,0,0,0,1011.6,1025.9
143,2020-01-27T02:22:00,3.8,北北東,7.9,北北東,7.9,62.8,0,0,0,0,0,0,1011.7,1026
144,2020-01-27T02:23:00,3.6,北,7.9,北北東,7.8,62.5,0,0,0,0,0,0,1011.7,1026
145,2020-01-27T02:24:00,3.5,北,7.9,北北東,7.8,62.7,0,0,0,0,0,0,1011.6,1025.9
146,2020-01-27T02:25:00,3.4,北,7.9,北北東,7.8,62.8,0,0,0,0,0,0,1011.6,1025.9
147,2020-01-27T02:26:00,3.3,北,7.9,北北東,7.8,62.9,0,0,0,0,0,0,1011.6,1025.9
148,2020-01-27T02:27:00,3.2,北,7.9,北北東,7.7,62.9,0,0,0,0,0,0,1011.6,1025.9
149,2020-01-27T02:28:00,3,北,7.9,北北東,7.7,63,0,0,0,0,0,0,1011.5,1025.8
150,2020-01-27T02:29:00,3,北,7.9,北北東,7.7,63.1,0,0,0,0,0,0,1011.4,1025.7
151,2020-01-27T02:30:00,2.8,北,7.2,北,7.7,63.2,0,0,0,0,0,0,1011.4,1025.7
152,2020-01-27T02:31:00,2.9,北,8,北北東,7.7,63,0,0,0,0,0,0,1011.4,1025.7
153,2020-01-27T02:32:00,2.8,北,8,北北東,7.8,62.9,0,0,0,0,0,0,1011.4,1025.7
154,2020-01-27T02:33:00,2.9,北,8,北北東,7.7,62.9,0,0,0,0,0,0,1011.3,1025.6
155,2020-01-27T02:34:00,3.2,北,8,北北東,7.7,63.1,0,0,0,0,0,0,1011.4,1025.7
156,2020-01-27T02:35:00,3.1,北,8,北北東,7.7,63,0,0,0,0,0,0,1011.4,1025.7
157,2020-01-27T02:36:00,3.1,北,8,北北東,7.8,62.8,0,0,0,0,0,0,1011.4,1025.7
158,2020-01-27T02:37:00,3.2,北,8,北北東,7.7,62.8,0,0,0,0,0,0,1011.4,1025.7
159,2020-01-27T02:38:00,3.2,北,8,北北東,7.8,63,0,0,0,0,0,0,1011.4,1025.7
160,2020-01-27T02:39:00,3.3,北,8,北北東,7.8,62.4,0,0,0,0,0,0,1011.4,1025.7
161,2020-01-27T02:40:00,3.3,北,8,北北東,7.8,62.3,0,0,0,0,0,0,1011.4,1025.7
162,2020-01-27T02:41:00,3.1,北,7.1,北,7.8,62.2,0,0,0,0,0,0,1011.3,1025.6
163,2020-01-27T02:42:00,3.3,北,7.7,北,7.8,62.4,0,0,0,0,0,0,1011.3,1025.6
164,2020-01-27T02:43:00,3.3,北,7.7,北,7.8,62.4,0,0,0,0,0,0,1011.3,1025.6
165,2020-01-27T02:44:00,3.4,北,7.7,北,7.7,62.4,0,0,0,0,0,0,1011.2,1025.5
166,2020-01-27T02:45:00,3.5,北,7.7,北,7.9,62.9,0,0,0,0,0,0,1011.2,1025.5
167,2020-01-27T02:46:00,3.6,北北東,7.7,北,7.8,63,0,0,0,0,0,0,1011.3,1025.6
168,2020-01-27T02:47:00,3.4,北,7.7,北,7.7,63,0,0,0,0,0,0,1011.3,1025.6
169,2020-01-27T02:48:00,3.3,北,7.7,北,7.8,63.3,0,0,0,0,0,0,1011.4,1025.7
170,2020-01-27T02:49:00,3.3,北,7.7,北,7.7,63.2,0,0,0,0,0,0,1011.5,1025.8
171,2020-01-27T02:50:00,3.2,北,7.7,北,7.6,63.4,0,0,0,0,0,0,1011.5,1025.8
172,2020-01-27T02:51:00,3.3,北,7.7,北,7.6,63.6,0,0,0,0,0,0,1011.4,1025.7
173,2020-01-27T02:52:00,3.3,北北東,7.1,北北東,7.6,63.7,0,0,0,0,0,0,1011.4,1025.7
174,2020-01-27T02:53:00,3.3,北北東,7.1,北北東,7.7,63.8,0,0,0,0,0,0,1011.3,1025.6
175,2020-01-27T02:54:00,3.1,北,7.1,北北東,7.7,63.7,0,0,0,0,0,0,1011.2,1025.5
176,2020-01-27T02:55:00,3,北,7.1,北北東,7.7,63.4,0,0,0,0,0,0,1011.1,1025.4
177,2020-01-27T02:56:00,2.8,北,7.1,北北東,7.7,63.4,0,0,0,0,0,0,1011.1,1025.4
178,2020-01-27T02:57:00,2.9,北,7.1,北北東,7.7,63.3,0,0,0,0,0,0,1011.1,1025.4
179,2020-01-27T02:58:00,3.1,北,7.1,北北東,7.8,63.4,0,0,0,0,0,0,1011.1,1025.4
180,2020-01-27T02:59:00,3.1,北,7.1,北北東,7.7,63,0,0,0,0,0,0,1011.1,1025.4
181,2020-01-27T03:00:00,3.4,北,7.1,北北東,7.7,63,0,0,0,0,0,0,1011.1,1025.4
182,2020-01-27T03:01:00,3.4,北,7.1,北北東,7.7,63.1,0,0,0,0,0,0,1011,1025.3
183,2020-01-27T03:02:00,3.3,北,6.7,北,7.8,63.4,0,0,0,0,0,0,1011,1025.3
184,2020-01-27T03:03:00,3.3,北,6.7,北,7.8,63.6,0,0,0,0,0,0,1010.9,1025.2
185,2020-01-27T03:04:00,3.2,北北東,6.7,北,7.7,63.6,0,0,0,0,0,0,1010.9,1025.2
186,2020-01-27T03:05:00,3.3,北北東,6.7,北,7.6,63.6,0,0,0,0,0,0,1010.9,1025.2
187,2020-01-27T03:06:00,3.5,北北東,6.7,北,7.6,63.7,0,0,0,0,0,0,1010.8,1025.1
188,2020-01-27T03:07:00,3.4,北北東,6.7,北,7.7,63.5,0,0,0,0,0,0,1010.8,1025.1
189,2020-01-27T03:08:00,3.5,北北東,8.3,北,7.8,63.3,0,0,0,0,0,0,1010.8,1025.1
190,2020-01-27T03:09:00,3.6,北北東,8.3,北,7.7,63,0,0,0,0,0,0,1010.8,1025.1
191,2020-01-27T03:10:00,3.4,北北東,8.3,北,7.7,62.8,0,0,0,0,0,0,1010.7,1025
192,2020-01-27T03:11:00,3.6,北北東,8.3,北,7.7,62.9,0,0,0,0,0,0,1010.7,1025
193,2020-01-27T03:12:00,3.6,北北東,8.3,北,7.9,63.2,0,0,0,0,0,0,1010.8,1025.1
194,2020-01-27T03:13:00,3.6,北,8.3,北,7.7,62.5,0,0,0,0,0,0,1010.7,1025
195,2020-01-27T03:14:00,3.7,北,8.3,北,7.7,62.6,0,0,0,0,0,0,1010.7,1025
196,2020-01-27T03:15:00,3.7,北,8.3,北,7.7,63,0,0,0,0,0,0,1010.8,1025.1
197,2020-01-27T03:16:00,3.5,北,8.3,北,7.6,63.2,0,0,0,0,0,0,1010.7,1025
198,2020-01-27T03:17:00,3.4,北,8.3,北,7.5,63.5,0,0,0,0,0,0,1010.8,1025.1
199,2020-01-27T03:18:00,3.4,北,7.6,北,7.6,63.7,0,0,0,0,0,0,1010.7,1025
200,2020-01-27T03:19:00,3.2,北,7.6,北,7.6,63.9,0,0,0,0,0,0,1010.7,1025
201,2020-01-27T03:20:00,3.2,北北東,7.6,北,7.6,63.9,0,0,0,0,0,0,1010.6,1024.9
202,2020-01-27T03:21:00,3.1,北,6.9,北北東,7.6,63.6,0,0,0,0,0,0,1010.6,1024.9
203,2020-01-27T03:22:00,3,北,6.7,北,7.6,63.6,0,0,0,0,0,0,1010.5,1024.8
204,2020-01-27T03:23:00,3.2,北,6.7,北,7.6,63.4,0,0,0,0,0,0,1010.5,1024.8
205,2020-01-27T03:24:00,3.3,北北東,6.7,北,7.7,63.4,0,0,0,0,0,0,1010.4,1024.7
206,2020-01-27T03:25:00,3.4,北北東,6.7,北,7.8,63,0,0,0,0,0,0,1010.3,1024.6
207,2020-01-27T03:26:00,3.6,北北東,6.7,北,7.8,62.4,0,0,0,0,0,0,1010.3,1024.6
208,2020-01-27T03:27:00,3.8,北北東,6.7,北,7.7,62.2,0,0,0,0,0,0,1010.2,1024.5
209,2020-01-27T03:28:00,3.8,北北東,6.7,北,7.6,62.5,0,0,0,0,0,0,1010.2,1024.5
210,2020-01-27T03:29:00,3.9,北北東,6.7,北,7.6,63.1,0,0,0,0,0,0,1010.3,1024.6
211,2020-01-27T03:30:00,3.7,北北東,6.6,北北東,7.7,63.4,0,0,0,0,0,0,1010.3,1024.6
212,2020-01-27T03:31:00,3.7,北北東,6.6,北北東,7.5,63.3,0,0,0,0,0,0,1010.2,1024.5
213,2020-01-27T03:32:00,3.8,北北東,6.6,北北東,7.6,63.5,0,0,0,0,0,0,1010.2,1024.5
214,2020-01-27T03:33:00,3.7,北北東,6.6,北北東,7.7,63.4,0,0,0,0,0,0,1010.1,1024.4
215,2020-01-27T03:34:00,3.4,北北東,6.1,北,7.6,63.3,0,0,0,0,0,0,1010.1,1024.4
216,2020-01-27T03:35:00,3.3,北北東,6.1,北,7.5,63.6,0,0,0,0,0,0,1009.9,1024.2
217,2020-01-27T03:36:00,3.2,北北東,6.1,北,7.6,63.9,0,0,0,0,0,0,1009.9,1024.2
218,2020-01-27T03:37:00,3.1,北北東,6.1,北,7.7,63.4,0,0,0,0,0,0,1009.9,1024.2
219,2020-01-27T03:38:00,3.1,北北東,6.4,北北東,7.5,63,0,0,0,0,0,0,1009.9,1024.2
220,2020-01-27T03:39:00,3.3,北北東,6.7,北東,7.6,62.9,0,0,0,0,0,0,1009.9,1024.2
221,2020-01-27T03:40:00,3.5,北北東,6.7,北東,7.7,63,0,0,0,0,0,0,1009.9,1024.2
222,2020-01-27T03:41:00,3.5,北北東,6.7,北東,7.7,62.8,0,0,0,0,0,0,1009.9,1024.2
223,2020-01-27T03:42:00,3.5,北北東,6.7,北東,7.8,62.9,0,0,0,0,0,0,1009.8,1024.1
224,2020-01-27T03:43:00,3.6,北北東,7.7,北北東,7.7,62.5,0,0,0,0,0,0,1009.8,1024.1
225,2020-01-27T03:44:00,4,北北東,7.7,北北東,7.7,62.5,0,0,0,0,0,0,1009.8,1024.1
226,2020-01-27T03:45:00,4,北北東,7.7,北北東,7.7,62.5,0,0,0,0,0,0,1009.9,1024.2
227,2020-01-27T03:46:00,4.2,北北東,7.7,北北東,7.6,62,0,0,0,0,0,0,1010,1024.3
228,2020-01-27T03:47:00,4.4,北北東,7.7,北北東,7.7,62.5,0,0,0,0,0,0,1010,1024.3
229,2020-01-27T03:48:00,4.5,北北東,7.7,北北東,7.6,62.8,0,0,0,0,0,0,1010,1024.3
230,2020-01-27T03:49:00,4.4,北北東,7.7,北北東,7.7,62.7,0,0,0,0,0,0,1010.1,1024.4
231,2020-01-27T03:50:00,4.4,北北東,7.7,北北東,7.7,62.4,0,0,0,0,0,0,1010.1,1024.4
232,2020-01-27T03:51:00,4.3,北北東,7.7,北北東,7.6,62.2,0,0,0,0,0,0,1010.1,1024.4
233,2020-01-27T03:52:00,4.2,北北東,7.7,北北東,7.5,62.2,0,0,0,0,0,0,1010.1,1024.4
234,2020-01-27T03:53:00,4.1,北北東,7.2,北北東,7.5,62.6,0,0,0,0,0,0,1010.1,1024.4
235,2020-01-27T03:54:00,3.9,北北東,7.1,北,7.5,62.4,0,0,0,0,0,0,1010.1,1024.4
236,2020-01-27T03:55:00,3.9,北北東,7.4,北,7.6,62.6,0,0,0,0,0,0,1010.1,1024.4
237,2020-01-27T03:56:00,3.9,北北東,7.6,北北東,7.7,62.9,0,0,0,0,0,0,1010.1,1024.4
238,2020-01-27T03:57:00,3.9,北北東,7.6,北北東,7.7,62.8,0,0,0,0,0,0,1010.1,1024.4
239,2020-01-27T03:58:00,3.7,北,7.6,北北東,7.6,62.2,0,0,0,0,0,0,1010.1,1024.4
240,2020-01-27T03:59:00,3.5,北,7.6,北北東,7.6,62,0,0,0,0,0,0,1010.1,1024.4
241,2020-01-27T04:00:00,3.5,北,7.6,北北東,7.5,62,0,0,0,0,0,0,1010.1,1024.4
242,2020-01-27T04:01:00,3.5,北,7.6,北北東,7.6,62.1,0,0,0,0,0,0,1010,1024.3
243,2020-01-27T04:02:00,3.4,北,7.6,北北東,7.5,62.1,0,0,0,0,0,0,1010.1,1024.4
244,2020-01-27T04:03:00,3.4,北,7.6,北北東,7.5,62,0,0,0,0,0,0,1010.1,1024.4
245,2020-01-27T04:04:00,3.5,北,7.6,北北東,7.6,62.4,0,0,0,0,0,0,1010.1,1024.4
246,2020-01-27T04:05:00,3.4,北,7.6,北北東,7.6,62.9,0,0,0,0,0,0,1010.1,1024.4
247,2020-01-27T04:06:00,3.3,北,7.1,北,7.6,63,0,0,0,0,0,0,1010.1,1024.4
248,2020-01-27T04:07:00,3.2,北,6.2,北西,7.5,63,0,0,0,0,0,0,1010.1,1024.4
249,2020-01-27T04:08:00,3.2,北,6.2,北西,7.5,63.2,0,0,0,0,0,0,1010.2,1024.5
250,2020-01-27T04:09:00,3.3,北北東,6.4,北北東,7.5,63,0,0,0,0,0,0,1010.2,1024.5
251,2020-01-27T04:10:00,3.4,北北東,7.9,北,7.5,63,0,0,0,0,0,0,1010.2,1024.5
252,2020-01-27T04:11:00,3.6,北北東,7.9,北,7.6,62.3,0,0,0,0,0,0,1010.2,1024.5
253,2020-01-27T04:12:00,3.7,北北東,7.9,北,7.5,62,0,0,0,0,0,0,1010.2,1024.5
254,2020-01-27T04:13:00,3.6,北北東,7.9,北,7.6,62.1,0,0,0,0,0,0,1010.1,1024.4
255,2020-01-27T04:14:00,3.7,北北東,7.9,北,7.6,62.3,0,0,0,0,0,0,1010.2,1024.5
256,2020-01-27T04:15:00,3.8,北,7.9,北,7.7,62,0,0,0,0,0,0,1010.2,1024.5
257,2020-01-27T04:16:00,3.9,北,7.9,北,7.6,62,0,0,0,0,0,0,1010.1,1024.4
258,2020-01-27T04:17:00,3.9,北,7.9,北,7.5,61.8,0,0,0,0,0,0,1010.2,1024.5
259,2020-01-27T04:18:00,3.7,北,7.9,北,7.5,61.9,0,0,0,0,0,0,1010.1,1024.4
260,2020-01-27T04:19:00,3.7,北,7.9,北,7.5,61.8,0,0,0,0,0,0,1010.2,1024.5
261,2020-01-27T04:20:00,3.5,北,7.6,北,7.4,61.9,0,0,0,0,0,0,1010.2,1024.5
262,2020-01-27T04:21:00,3.2,北,6.5,北北東,7.5,61.7,0,0,0,0,0,0,1010.2,1024.5
263,2020-01-27T04:22:00,3.1,北,6.5,北北東,7.5,61.7,0,0,0,0,0,0,1010.1,1024.4
264,2020-01-27T04:23:00,3.1,北,6.5,北北東,7.5,61.4,0,0,0,0,0,0,1010.2,1024.5
265,2020-01-27T04:24:00,3.1,北,7.8,北北東,7.5,61.2,0,0,0,0,0,0,1010.2,1024.5
266,2020-01-27T04:25:00,3,北,7.8,北北東,7.5,61,0,0,0,0,0,0,1010.2,1024.5
267,2020-01-27T04:26:00,2.9,北,7.8,北北東,7.6,60.7,0,0,0,0,0,0,1010.2,1024.5
268,2020-01-27T04:27:00,2.9,北,7.8,北北東,7.5,60.8,0,0,0,0,0,0,1010.3,1024.6
269,2020-01-27T04:28:00,3,北,7.8,北北東,7.5,60.9,0,0,0,0,0,0,1010.3,1024.6
270,2020-01-27T04:29:00,3.1,北,7.8,北北東,7.5,61,0,0,0,0,0,0,1010.2,1024.5
271,2020-01-27T04:30:00,3.2,北,7.8,北北東,7.6,60.7,0,0,0,0,0,0,1010.3,1024.6
272,2020-01-27T04:31:00,3.3,北,7.8,北北東,7.7,60.9,0,0,0,0,0,0,1010.3,1024.6
273,2020-01-27T04:32:00,3.4,北,7.8,北北東,7.6,60.9,0,0,0,0,0,0,1010.2,1024.5
274,2020-01-27T04:33:00,3.3,北,7.8,北北東,7.5,60.9,0,0,0,0,0,0,1010.2,1024.5
275,2020-01-27T04:34:00,3.2,北,6.7,北北東,7.5,61,0,0,0,0,0,0,1010.2,1024.5
276,2020-01-27T04:35:00,3.1,北,6.7,北北東,7.5,60.9,0,0,0,0,0,0,1010.1,1024.4
277,2020-01-27T04:36:00,3,北,6.1,北北東,7.5,61,0,0,0,0,0,0,1010.1,1024.4
278,2020-01-27T04:37:00,2.9,北,6.1,北北東,7.5,61.1,0,0,0,0,0,0,1010.1,1024.4
279,2020-01-27T04:38:00,3,北,6.5,北北東,7.4,61.4,0,0,0,0,0,0,1010.1,1024.4
280,2020-01-27T04:39:00,3.2,北,6.8,北北東,7.4,61.7,0,0,0,0,0,0,1010.1,1024.4
281,2020-01-27T04:40:00,3.2,北,6.8,北北東,7.5,62.1,0,0,0,0,0,0,1010.1,1024.4
282,2020-01-27T04:41:00,3.1,北,6.8,北北東,7.5,61.8,0,0,0,0,0,0,1010,1024.3
283,2020-01-27T04:42:00,3.2,北,6.8,北北東,7.5,62.1,0,0,0,0,0,0,1010,1024.3
284,2020-01-27T04:43:00,3.2,北,6.8,北北東,7.5,62.1,0,0,0,0,0,0,1009.9,1024.2
285,2020-01-27T04:44:00,3.3,北,6.8,北北東,7.5,62.5,0,0,0,0,0,0,1009.9,1024.2
286,2020-01-27T04:45:00,3.2,北,6.8,北北東,7.4,62.7,0,0,0,0,0,0,1009.8,1024.1
287,2020-01-27T04:46:00,3.2,北,6.8,北北東,7.3,62.7,0,0,0,0,0,0,1009.8,1024.1
288,2020-01-27T04:47:00,3.2,北,6.8,北北東,7.3,62.5,0,0,0,0,0,0,1009.8,1024.1
289,2020-01-27T04:48:00,3.1,北,6.8,北北東,7.4,62.3,0,0,0,0,0,0,1009.7,1024
290,2020-01-27T04:49:00,2.9,北,6.1,北西,7.4,61.5,0,0,0,0,0,0,1009.8,1024.1
291,2020-01-27T04:50:00,3,北,7.6,北,7.4,61.3,0,0,0,0,0,0,1009.7,1024
292,2020-01-27T04:51:00,3.1,北,7.6,北,7.5,61.7,0,0,0,0,0,0,1009.7,1024
293,2020-01-27T04:52:00,3.3,北,7.6,北,7.5,61.9,0,0,0,0,0,0,1009.8,1024.1
294,2020-01-27T04:53:00,3.4,北,8.9,北北東,7.4,62.1,0,0,0,0,0,0,1009.7,1024
295,2020-01-27T04:54:00,3.5,北,8.9,北北東,7.4,62.2,0,0,0,0,0,0,1009.7,1024
296,2020-01-27T04:55:00,3.7,北,8.9,北北東,7.4,62.3,0,0,0,0,0,0,1009.8,1024.1
297,2020-01-27T04:56:00,3.8,北,8.9,北北東,7.4,62.5,0,0,0,0,0,0,1009.8,1024.1
298,2020-01-27T04:57:00,3.8,北,8.9,北北東,7.4,62.7,0,0,0,0,0,0,1009.8,1024.1
299,2020-01-27T04:58:00,3.8,北,8.9,北北東,7.3,62.6,0,0,0,0,0,0,1009.8,1024.1
300,2020-01-27T04:59:00,3.7,北,8.9,北北東,7.3,62.7,0,0,0,0,0,0,1009.8,1024.1
301,2020-01-27T05:00:00,3.6,北,8.9,北北東,7.3,62.8,0,0,0,0,0,0,1009.7,1024
302,2020-01-27T05:01:00,3.5,北,8.9,北北東,7.3,62.8,0,0,0,0,0,0,1009.7,1024
303,2020-01-27T05:02:00,3.5,北,8.9,北北東,7.3,63.2,0,0,0,0,0,0,1009.6,1023.9
304,2020-01-27T05:03:00,3.5,北,7.6,北北東,7.4,63.6,0,0,0,0,0,0,1009.6,1023.9
305,2020-01-27T05:04:00,3.5,北,7.6,北北東,7.5,63.5,0,0,0,0,0,0,1009.6,1023.9
306,2020-01-27T05:05:00,3.5,北,7.6,北北東,7.5,63.3,0,0,0,0,0,0,1009.6,1023.9
307,2020-01-27T05:06:00,3.4,北,7.6,北北東,7.4,63.2,0,0,0,0,0,0,1009.6,1023.9
308,2020-01-27T05:07:00,3.6,北,7.6,北北東,7.3,63.2,0,0,0,0,0,0,1009.6,1023.9
309,2020-01-27T05:08:00,3.6,北,7.6,北北東,7.3,63.6,0,0,0,0,0,0,1009.5,1023.8
310,2020-01-27T05:09:00,3.8,北,7.6,北北東,7.3,63.7,0,0,0,0,0,0,1009.5,1023.8
311,2020-01-27T05:10:00,3.8,北北東,7.6,北北東,7.3,64,0,0,0,0,0,0,1009.5,1023.8
312,2020-01-27T05:11:00,3.9,北北東,7.6,北北東,7.3,63.9,0,0,0,0,0,0,1009.5,1023.8
313,2020-01-27T05:12:00,4,北北東,7.6,北北東,7.3,64.1,0,0,0,0,0,0,1009.5,1023.8
314,2020-01-27T05:13:00,3.9,北北東,6.8,北,7.3,64.2,0,0,0,0,0,0,1009.5,1023.8
315,2020-01-27T05:14:00,3.8,北北東,6.8,北,7.3,64.3,0,0,0,0,0,0,1009.4,1023.7
316,2020-01-27T05:15:00,3.8,北北東,6.8,北,7.3,64.3,0,0,0,0,0,0,1009.4,1023.7
317,2020-01-27T05:16:00,3.8,北北東,6.8,北,7.3,64.5,0,0,0,0,0,0,1009.3,1023.6
318,2020-01-27T05:17:00,3.6,北北東,6.8,北,7.1,64.2,0,0,0,0,0,0,1009.4,1023.7
319,2020-01-27T05:18:00,3.6,北北東,6.8,北,7.1,64.6,0,0,0,0,0,0,1009.4,1023.7
320,2020-01-27T05:19:00,3.7,北北東,7.1,北北東,7.2,64.9,0,0,0,0,0,0,1009.4,1023.7
321,2020-01-27T05:20:00,3.9,北北東,7.1,北北東,7.3,64.7,0,0,0,0,0,0,1009.4,1023.7
322,2020-01-27T05:21:00,3.8,北北東,7.1,北北東,7.4,64.6,0,0,0,0,0,0,1009.3,1023.6
323,2020-01-27T05:22:00,3.8,北北東,7.1,北北東,7.3,64.5,0,0,0,0,0,0,1009.3,1023.6
324,2020-01-27T05:23:00,3.8,北北東,7.1,北北東,7.3,64.4,0,0,0,0,0,0,1009.2,1023.5
325,2020-01-27T05:24:00,3.8,北北東,7.1,北北東,7.3,64.2,0,0,0,0,0,0,1009.3,1023.6
326,2020-01-27T05:25:00,3.7,北北東,7.1,北北東,7.2,64.1,0,0,0,0,0,0,1009.3,1023.6
327,2020-01-27T05:26:00,3.6,北北東,7.1,北北東,7.1,64.5,0,0,0,0,0,0,1009.3,1023.6
328,2020-01-27T05:27:00,3.9,北北東,7.1,北北東,7.1,64.9,0,0,0,0,0,0,1009.3,1023.6
329,2020-01-27T05:28:00,3.9,北北東,7.1,北北東,7.2,65.1,0,0,0,0,0,0,1009.3,1023.6
330,2020-01-27T05:29:00,3.7,北北東,6.3,北北東,7.1,65,0,0,0,0,0,0,1009.3,1023.6
331,2020-01-27T05:30:00,3.5,北北東,6.2,北,7.2,65.2,0,0,0,0,0,0,1009.3,1023.6
332,2020-01-27T05:31:00,3.4,北北東,6.2,北,7.3,65.2,0,0,0,0,0,0,1009.2,1023.5
333,2020-01-27T05:32:00,3.2,北北東,6.3,北,7.2,64.7,0,0,0,0,0,0,1009.2,1023.5
334,2020-01-27T05:33:00,3.1,北北東,6.3,北,7.3,64.7,0,0,0,0,0,0,1009.2,1023.5